#timestamp,LO_Frequency,Hit,StdDev 
1698411615.2,286046993.8,N
1698411635.0,286046993.4,N
1698411635.9,286046993.4,N
1698411655.7,286046996.2,N
1698411675.6,286046995.9,N
1698411695.4,286046996.2,N
1698411715.3,286046996.0,N
1698411735.1,286046996.1,N
1698411736.0,286046996.1,N
1698411755.8,286046995.0,N
1698411775.7,286046995.4,N
1698411795.5,286046995.4,N
1698411815.3,286046995.9,N
1698411835.2,286046993.9,Y
1698411855.0,286046996.9,P
1698411855.9,286046996.9,P
1698411875.8,286046996.9,P
1698411895.6,286046997.2,Y
1698411915.4,286047002.3,P
1698411935.3,286046999.8,N
1698411955.1,286046999.7,N
1698411975.9,286047000.0,N
1698411995.7,286046999.7,N
1698412015.5,286047001.5,N
1698412035.4,286047003.0,N
1698412055.2,286047004.5,N
1698412075.0,286047007.1,Y
1698412075.9,286047007.1,P
1698412095.8,286047004.7,N
1698412115.6,286047005.0,N
1698412135.5,286047005.2,N
1698412155.3,286047004.7,N
1698412175.1,286047007.4,Y
1698412195.9,286047002.4,P
1698412215.7,286047002.6,N
1698412235.6,286047002.8,N
1698412255.4,286047002.2,N
1698412275.2,286047001.6,N
1698412295.1,286047002.1,N
1698412296.0,286047002.1,N
1698412315.8,286047001.7,N
1698412335.6,286046999.7,N
1698412355.5,286047002.7,N
1698412375.3,286047002.4,N
1698412395.2,286047000.0,N
1698412415.9,286046999.9,N
1698412435.7,286046998.3,N
1698412455.6,286046999.1,N
1698412475.4,286046999.0,N
1698412495.3,286046999.1,N
1698412515.1,286046999.2,N
1698412516.0,286046999.2,N
1698412535.8,286046996.6,N
1698412555.7,286046996.6,N
1698412575.5,286046996.8,N
1698412595.3,286046997.4,N
1698412615.2,286046996.9,N
1698412635.0,286046996.9,N
1698412635.9,286046996.9,N
1698412655.8,286046996.9,N
1698412675.6,286046997.1,N
1698412695.4,286046997.6,N
1698412715.3,286046995.8,N
1698412735.1,286046996.1,N
1698412755.8,286046995.8,N
1698412775.7,286046995.6,N
1698412795.5,286046993.7,N
1698412815.4,286046994.1,N
1698412835.2,286046994.6,N
1698412855.0,286046994.3,N
1698412855.9,286046994.3,N
1698412875.8,286046993.5,N
1698412895.6,286046994.8,N
1698412915.4,286046994.5,N
1698412935.3,286046994.2,Y
1698412955.1,286046998.0,P
1698412975.9,286046997.7,P
1698412995.7,286046997.1,P
1698413015.5,286046997.4,Y
1698413035.4,286047001.1,P
1698413055.2,286047000.4,N
1698413075.1,286047002.0,N
1698413076.0,286047002.0,N
1698413095.8,286047002.0,N
1698413115.6,286047004.2,N
1698413135.5,286047003.1,N
1698413155.3,286047003.5,N
1698413175.1,286047004.4,N
1698413195.9,286047001.5,N
1698413215.7,286047001.9,N
1698413235.6,286047002.0,N
1698413255.4,286047002.0,N
1698413275.2,286047001.5,N
1698413295.1,286047002.5,N
1698413296.0,286047002.5,N
1698413315.8,286047002.3,N
1698413335.7,286047002.8,N
1698413355.5,286046999.7,N
1698413375.3,286047002.0,N
1698413395.2,286047001.5,N
1698413415.0,286047002.0,N
1698413415.9,286047002.0,N
1698413435.7,286047001.7,N
1698413455.6,286047004.3,Y
1698413475.4,286047000.4,P
1698413495.3,286047000.1,N
1698413515.1,286047004.3,P
1698413535.8,286047002.5,N
1698413555.7,286046999.7,N
1698413575.5,286047000.5,N
1698413595.4,286047000.5,N
1698413615.2,286047000.7,N
1698413635.0,286046999.1,N
1698413635.9,286046999.1,N
1698413655.8,286046999.6,N
1698413675.6,286046999.1,N
1698413695.5,286046999.2,N
1698413715.3,286046996.6,N
1698413735.1,286046998.7,N
1698413755.9,286046999.2,N
1698413775.7,286046999.5,N
1698413795.5,286046996.7,N
1698413815.4,286046999.2,N
1698413835.2,286047001.2,N
1698413855.1,286047001.1,N
1698413856.0,286047001.1,N
1698413875.8,286046999.9,N
1698413895.6,286047002.1,N
1698413915.5,286047001.3,N
1698413935.3,286047001.7,N
1698413955.2,286047001.4,N
1698413975.9,286047004.2,N
1698413995.7,286047003.8,N
1698414015.6,286047003.0,N
1698414035.4,286047005.4,N
1698414055.2,286047005.5,N
1698414075.1,286047005.5,N
1698414076.0,286047005.5,N
1698414095.8,286047003.4,N
1698414115.7,286047003.9,N
1698414135.5,286047001.8,N
1698414155.3,286047001.4,N
1698414175.2,286047002.2,N
1698414195.0,286047001.9,N
1698414195.9,286047001.9,N
1698414215.8,286047001.7,N
1698414235.6,286047002.0,N
1698414255.4,286047002.1,N
1698414275.3,286047002.6,N
1698414295.1,286047002.8,N
1698414315.8,286046999.9,N
1698414335.7,286046999.8,N
1698414355.5,286047001.9,N
1698414375.3,286047001.9,N
1698414395.2,286047002.0,N
1698414415.0,286047000.1,N
1698414415.9,286047000.1,N
1698414435.8,286046999.9,N
1698414455.6,286046998.6,N
1698414475.4,286046998.3,N
1698414495.3,286047000.7,N
1698414515.1,286046999.8,N
1698414535.9,286047000.1,N
1698414555.7,286046999.8,N
1698414575.5,286047002.0,N
1698414595.4,286047001.5,N
1698414615.2,286047001.5,N
1698414635.0,286046999.8,N
1698414636.0,286046999.8,N
1698414655.8,286047000.1,N
1698414675.6,286047000.4,N
1698414695.5,286046999.0,N
1698414715.3,286046997.4,N
1698414735.1,286046993.3,Y
1698414755.9,286046993.8,P
1698414775.7,286046997.6,N
1698414795.6,286046997.4,N
1698414815.4,286046995.3,N
1698414835.2,286046995.5,N
1698414855.1,286046995.1,N
1698414856.0,286046995.1,N
1698414875.8,286046996.8,N
1698414895.6,286046997.8,N
1698414915.5,286046994.9,N
1698414935.3,286046995.2,N
1698414955.2,286046998.0,N
1698414975.9,286046995.4,N
1698414995.7,286046997.4,N
1698415015.6,286046997.8,N
1698415035.4,286046994.9,Y
1698415055.2,286047000.5,P
1698415075.1,286047001.0,N
1698415076.0,286047001.0,N
1698415095.8,286047000.7,N
1698415115.7,286047001.2,N
1698415135.5,286046998.2,N
1698415155.3,286046998.8,N
1698415175.2,286046999.0,N
1698415195.0,286047001.1,N
1698415195.9,286047001.1,N
